Location: Heisede
(52.2582°N, 9.8523°E)
Time: 00:35:46
(UTC+00:00)

Gblst 52 Del rocket - Pass Details

Date: 13 January 2026
Orbit: 805 x 1364 km, 51.5° (Epoch: 18 February)

Event Time Altitude Azimuth Distance (km) Brightness Sun altitude
Exits shadow 05:40:13 23° 275° (W) 1,667 5.1 -15.2°
Maximum altitude 05:43:39 66° 199° (SSW) 882 4.3 -14.7°
Drops below altitude 10° 05:49:12 10° 119° (ESE) 2,442 8.0 -13.9°
Sets 05:51:46 0° 116° (ESE) 3,422 9.3 -13.5°
